Wind_Speed
24 28 24 15 18 13 11 12 9 8 4 9 14 14 18 17 20 21 10 10 10 10 6 6 7 7 8 14 15 16 14 10
24 24 23 20 13 6 7 7 6 8 9 7 14 20 19 19 18 23 7 10 9 8 8 5 7 12 14 16 17 17 15 12
26 23 16 16 10 14 11 8 7 7 9 20 21 24 20 20 20 17 12 11 14 11 11 11 13 12 14 17 17 14 12 9
21 26 20 14 13 12 8 14 10 11 14 22 21 25 23 18 17 18 14 10 11 16 15 15 14 12 13 15 15 14 13 13
23 20 17 15 14 13 13 11 13 10 15 23 21 21 21 16 17 16 15 13 10 12 15 16 11 12 15 14 15 15 15 15
16 13 14 18 16 15 14 10 15 14 15 24 20 21 15 15 14 13 11 10 12 14 14 14 13 15 16 16 16 15 16 16
24 28 26 19 19 21 20 15 17 16 20 24 29 19 14 13 15 14 13 14 12 13 14 15 15 16 18 18 17 17 17 18
31 29 28 29 25 21 17 19 20 20 26 27 26 19 20 21 18 20 19 16 16 17 19 19 21 21 21 21 21 21 19 21
24 28 26 26 20 20 21 21 21 24 23 33 20 21 25 26 21 21 23 24 23 23 24 22 21 22 22 23 24 24 22 23
22 22 25 22 20 19 20 22 27 27 26 27 23 20 24 23 21 23 24 27 27 25 24 24 23 24 25 24 24 25 25 26
28 25 20 23 20 20 24 28 27 26 30 26 26 23 22 21 23 24 27 29 30 30 26 25 26 25 26 26 26 27 28 30
22 22 20 24 26 23 25 24 29 32 31 28 26 28 31 29 28 29 30 30 28 28 29 28 26 25 25 26 28 29 31 33
25 29 23 32 30 31 30 24 30 33 29 30 30 28 28 30 29 27 26 23 22 24 26 26 25 25 25 27 29 31 33 33
27 26 25 30 27 28 28 30 29 26 25 27 28 27 26 27 24 26 25 23 23 24 25 25 24 24 27 30 32 32 30 29
21 20 22 23 23 25 28 27 26 24 25 26 26 27 25 25 25 26 27 27 26 26 25 24 24 26 29 31 30 29 29 32
23 26 26 26 26 29 30 29 29 30 30 28 26 26 26 26 26 28 29 29 28 26 23 23 25 29 28 27 28 30 33 35
28 28 28 27 28 30 30 30 31 32 34 33 28 26 26 26 27 28 28 27 24 23 23 26 26 26 27 29 32 34 35 36
23 30 29 32 33 33 33 34 34 33 32 30 27 25 24 25 26 25 22 21 22 24 25 24 24 26 29 32 33 34 35 36
27 28 30 32 34 33 33 35 33 31 30 28 26 25 24 24 24 24 23 23 24 23 23 24 26 29 30 30 31 34 36 37
Wind_Direction
192 199 210 244 248 237 242 281 286 280 326 323 311 317 332 320 336 344 231 219 221 217 235 253 289 294 298 297 311 306 293 278
194 203 212 218 223 239 267 254 290 287 334 303 300 314 316 322 329 342 296 247 232 239 239 265 304 297 296 296 295 290 290 282
185 195 219 224 239 228 217 249 254 298 299 294 296 300 307 311 315 326 337 277 239 248 248 273 281 277 281 283 279 280 283 285
189 209 212 199 214 220 242 284 284 262 293 286 294 293 297 301 305 305 319 312 249 243 252 263 262 271 275 278 283 286 282 285
205 203 214 222 222 235 232 242 272 283 285 293 302 297 298 299 314 294 294 289 268 256 261 268 273 277 284 281 276 275 277 280
216 218 220 224 231 234 242 248 273 292 277 309 319 305 292 299 319 298 289 280 268 270 275 284 282 273 280 287 282 273 270 272
202 213 219 233 247 249 254 258 269 270 293 297 312 296 279 296 307 292 273 283 283 284 284 281 282 288 289 291 294 286 281 279
217 221 234 240 251 255 256 263 281 299 299 292 309 280 273 282 304 301 283 275 276 298 309 305 298 294 294 291 293 291 287 287
231 239 245 243 254 259 262 270 285 291 292 306 295 267 270 279 288 293 292 289 286 290 296 294 293 291 290 292 292 290 289 289
222 229 239 247 252 262 266 273 279 286 292 298 296 283 279 281 285 286 286 283 282 288 292 291 290 289 290 290 288 287 288 289
230 237 242 256 260 266 264 281 283 282 295 290 285 291 287 283 287 288 285 283 280 281 283 284 285 287 290 290 287 287 288 290
243 237 246 255 255 261 265 270 274 279 288 280 281 278 278 284 292 295 291 288 286 280 277 280 283 286 286 284 282 283 287 290
256 256 249 253 259 262 264 262 266 279 278 273 277 283 285 286 290 290 294 292 286 283 280 282 284 285 285 286 286 288 290 291
247 251 249 257 261 260 259 263 268 274 274 272 278 282 285 285 284 287 289 287 284 281 280 282 287 288 286 285 286 288 290 295
241 243 251 251 252 253 254 259 265 268 271 282 281 281 279 277 278 283 285 285 282 283 283 284 284 286 285 287 290 292 296 298
244 245 249 250 252 254 261 266 269 267 268 283 280 280 276 275 280 280 278 277 278 279 277 281 285 286 286 289 293 295 296 296
250 255 256 257 259 264 269 271 269 264 273 282 281 276 269 273 275 275 275 274 275 273 277 281 281 283 289 294 296 296 296 297
243 253 250 254 258 262 267 270 271 272 276 279 279 275 271 274 273 271 272 270 272 274 277 275 281 289 296 301 302 302 301 301
256 258 259 260 262 266 271 273 277 277 275 278 280 278 278 274 267 264 266 268 272 273 276 284 291 295 300 302 305 307 304 301
Height
5909 5913 5918 5921 5923 5928 5929 5929 5928 5929 5925 5922 5915 5913 5911 5906 5904 5902 5901 5901 5903 5904 5905 5905 5906 5906 5907 5908 5907 5907 5907 5907
5908 5912 5915 5918 5921 5924 5926 5928 5928 5928 5924 5922 5915 5910 5910 5906 5904 5902 5900 5900 5902 5902 5903 5904 5906 5907 5907 5907 5905 5905 5904 5903
5906 5910 5917 5916 5918 5920 5924 5924 5925 5926 5926 5919 5914 5909 5907 5905 5902 5901 5900 5899 5900 5902 5903 5903 5905 5906 5906 5905 5903 5902 5901 5900
5907 5906 5909 5912 5916 5919 5921 5922 5920 5919 5921 5914 5911 5907 5903 5903 5901 5900 5899 5898 5898 5900 5902 5902 5903 5904 5903 5902 5900 5897 5896 5896
5901 5906 5907 5910 5912 5914 5917 5918 5919 5918 5918 5910 5907 5903 5901 5900 5898 5897 5897 5898 5897 5898 5899 5900 5901 5901 5899 5899 5897 5895 5894 5892
5904 5907 5908 5907 5909 5910 5912 5917 5915 5914 5911 5906 5903 5900 5898 5896 5896 5895 5894 5895 5896 5896 5896 5896 5896 5896 5895 5894 5892 5891 5890 5889
5897 5898 5901 5903 5905 5906 5907 5909 5908 5908 5904 5902 5898 5895 5894 5893 5892 5892 5892 5892 5892 5893 5892 5892 5891 5890 5889 5888 5886 5886 5884 5883
5890 5894 5897 5900 5900 5901 5902 5902 5902 5901 5899 5895 5893 5890 5889 5889 5888 5888 5888 5888 5887 5887 5886 5885 5885 5884 5882 5881 5879 5879 5877 5877
5888 5890 5893 5894 5896 5896 5897 5896 5896 5896 5894 5889 5887 5886 5885 5885 5886 5884 5883 5883 5882 5881 5880 5879 5878 5877 5876 5874 5873 5871 5870 5869
5885 5886 5886 5889 5889 5890 5890 5890 5889 5888 5886 5884 5882 5882 5880 5880 5880 5879 5878 5877 5876 5875 5874 5872 5870 5869 5868 5867 5866 5865 5864 5862
5877 5880 5883 5881 5882 5883 5884 5884 5881 5881 5879 5878 5878 5877 5876 5875 5873 5872 5871 5870 5869 5868 5867 5865 5864 5863 5862 5860 5859 5858 5857 5856
5869 5874 5876 5876 5872 5875 5877 5878 5874 5874 5872 5872 5872 5872 5868 5869 5867 5865 5862 5861 5861 5860 5859 5858 5857 5856 5855 5854 5853 5852 5850 5848
5863 5863 5868 5863 5866 5868 5870 5874 5867 5866 5866 5866 5866 5866 5863 5862 5860 5857 5856 5853 5852 5851 5851 5851 5850 5850 5849 5848 5847 5845 5842 5840
5853 5854 5857 5856 5858 5860 5860 5859 5859 5860 5860 5859 5859 5858 5857 5855 5853 5851 5849 5848 5846 5846 5845 5845 5843 5843 5842 5841 5840 5837 5834 5832
5848 5851 5848 5849 5850 5850 5851 5852 5852 5853 5853 5852 5851 5850 5849 5848 5846 5845 5843 5842 5841 5840 5839 5838 5837 5836 5835 5833 5831 5828 5826 5823
5841 5840 5841 5842 5843 5843 5843 5844 5845 5844 5845 5844 5843 5842 5841 5840 5839 5838 5836 5835 5834 5833 5832 5831 5830 5830 5829 5826 5824 5821 5819 5815
5834 5834 5835 5835 5835 5836 5836 5836 5836 5836 5836 5836 5836 5835 5834 5833 5832 5830 5829 5828 5827 5827 5826 5825 5824 5823 5821 5818 5816 5813 5810 5806
5826 5824 5827 5827 5828 5828 5828 5828 5827 5828 5827 5827 5827 5826 5826 5825 5824 5823 5822 5821 5821 5820 5819 5818 5817 5815 5812 5809 5807 5803 5800 5796
5817 5818 5818 5819 5820 5820 5819 5819 5818 5818 5818 5818 5818 5817 5817 5817 5816 5815 5815 5815 5814 5812 5811 5810 5809 5806 5804 5801 5798 5794 5790 5786